DELTA 1 DEB, 10873

Orbit data source: Space-Track

DELTA 1 DEB, 10873 is space debris in SSO originally from a launch on Thu, 29 Jul 1976 UTC launched from the Air Force Western Test Range (AFWTR). Debris objects in space refer to the collection of defunct objects orbiting the Earth. Examples of debris include non-operational satellites, rocket bodies, and fragments generated from explosions, collisions, or faulty payload assembly.

Loading next visibility...
Identifier
10873, 1976-077DB
Orbit
SSO
Country
Flag of USUS
Related business
Manufacturer
Unknown
Mission
Spacecraft
Bus & Motor
Unknown
Mass
Unknown
Launch date (UTC)
1976-07-29 (49 years ago)
Launch vehicle
Unknown
Launch site
Air Force Western Test Range (AFWTR)
Object type
Payload
Rocket body
Debris
Shape & HBR
Unknown shape, 0.1 m
Radar Cross Section
Medium (>0.1 m² and <1 m²)

Expand to show TLE details & history
Last TLE update: 10 hours ago

TLE from 10 hours ago
0 DELTA 1 DEB
1 10873U 76077DB  25352.88995241 -.00000084  00000-0 -43055-3 0  9993
2 10873 102.1922 120.5369 0140159 119.8972  31.8700 12.13907860189836
Epoch: 2025-12-18T21:21Z
TLE epoch observation values (Epoch: 2025-12-18T21:21:31.888Z)
Latitude
26.74141°
Longitude
-101.36571°
Altitude
1,527.334 km
Speed
7.146 km/s
True Right ascension
20h 27m 01s
True Declination
26° 37' 01"
Sunlit
Object was in daylight at epoch
Visualization orbit readout
Latitude
Unknown
Longitude
Unknown
Altitude
Unknown
Speed
Unknown
Apparent Right ascension
Unknown
Apparent Declination
Unknown
Sunlit
N/A
Visualization observer readout
Local Sidereal Time
06:06:59
Azimuth
Unknown
Elevation
Unknown
Doppler factor
Unknown
Orbital elements
Apogee altitude
1,728.863 km
Perigee altitude
1,504.75 km
Semi-major axis
7,994.944 km
Eccentricity
0.01402
Inclination
102.1922°
RAAN
120.5369°
Arg. of periapsis
119.8972°
True anomaly
32.73078°
Mean anomaly
31.87°
Eccentric anomaly
32.2991°
Mean motion
3.03613 °/min
Orbital period
118.57 mins
BSTAR
-0.00043055
Loading maneuver chart data...
Computing Atmospheric mass density...
Loading historical data...
Loading historical data...
Loading historical data...
Loading historical data...
Loading historical data...
Loading historical data...
Loading historical data...

Documentation

Showing up to 5 results
|